Location: Unspecified
(0.0000°N, 0.0000°E)
Time: 15:16:37
(UTC+00:00)

Hubble Space Telescope - Pass Details

Date: 12 April 2021
Orbit: 535 x 539 km, 28.5° (Epoch: 16 April)

Event Time Altitude Azimuth Distance (km) Brightness Sun altitude
Rises 20:23:15 0° 251° (WSW) 2,671 5.1 -35.1°
Reaches altitude 10° 20:25:35 10° 258° (WSW) 1,778 4.1 -35.7°
Enters shadow 20:25:47 11° 258° (WSW) 1,705 4.0 -35.8°
